Mount Washington, New Hampshire, United States (03589)
Lat: 44.69N, Lon: 71.39W
Wx Zone: NHZ002
Local Info
Past Weather Observations for Today

NOTE: This archive is for the closest National Weather Service station to Mount Washington. Information may differ from the station used for current weather conditions.

Click here for Long-term Archive

Time Weather Temperature Dewpoint Humidity Pressure Winds Precip Visibility
15:52
Overcast
Light Snow
21°F / -6°C 14°F / -10°C 74% 30.04 in
(1017 mb)
Variable 5.8 mph
(Variable 9 kph)
0.00 in
(0.00 mm)
4SM
14:52
Overcast
Light Snow
23°F / -5°C 14°F / -10°C 68% 30.01 in
(1016 mb)
Variable 5.8 mph
(Variable 9 kph)
0.00 in
(0.00 mm)
9SM
13:52
Overcast
25°F / -4°C 16°F / -9°C 69% 30.01 in
(1016 mb)
W 5.8 mph
(W 9 kph)
0.00 in
(0.00 mm)
10SM
12:52
Overcast
Light Snow
25°F / -4°C 16°F / -9°C 69% 29.98 in
(1015 mb)
Variable 6.9 mph
(Variable 11 kph)
0.00 in
(0.00 mm)
8SM
12:28
Overcast
Light Snow
25°F / -4°C 18°F / -8°C 74% 29.98 in
(1015 mb)
Variable 5.8 mph
(Variable 9 kph)
0.00 in
(0.00 mm)
3SM
12:21
Overcast
Light Snow
25°F / -4°C 18°F / -8°C 74% 29.98 in
(1015 mb)
W 8.1 mph
(W 13 kph)
0.00 in
(0.00 mm)
1 3/4SM
11:52
Overcast
Light Snow
25°F / -4°C 18°F / -8°C 74% 29.98 in
(1015 mb)
Variable 6.9 mph
(Variable 11 kph)
0.00 in
(0.00 mm)
4SM
11:04
Overcast
Light Snow
25°F / -4°C 18°F / -8°C 74% 29.98 in
(1015 mb)
Variable 3.5 mph
(Variable 6 kph)
0.00 in
(0.00 mm)
5SM
10:52
Overcast
25°F / -4°C 18°F / -8°C 74% 30.01 in
(1016 mb)
Variable 4.6 mph
(Variable 7 kph)
- 8SM
10:19
Mostly Cloudy
23°F / -5°C 19°F / -7°C 86% 30.01 in
(1016 mb)
Calm - 10SM
10:01
Mostly Cloudy
21°F / -6°C 18°F / -8°C 86% 30.01 in
(1016 mb)
Calm - 10SM
09:52
Overcast
21°F / -6°C 18°F / -8°C 86% 30.01 in
(1016 mb)
Calm 0.00 in
(0.00 mm)
10SM
08:52
Overcast
Light Snow
19°F / -7°C 18°F / -8°C 93% 30.01 in
(1016 mb)
Calm 0.00 in
(0.00 mm)
3SM
08:47
Overcast
Light Snow
19°F / -7°C 18°F / -8°C 93% 30.01 in
(1016 mb)
Calm 0.00 in
(0.00 mm)
2 1/2SM
08:32
Overcast
Fog And Mist
19°F / -7°C 18°F / -8°C 93% 30.01 in
(1016 mb)
Calm 0.00 in
(0.00 mm)
4SM
08:15
Overcast
Light Snow
19°F / -7°C 16°F / -9°C 86% 30.01 in
(1016 mb)
Calm 0.00 in
(0.00 mm)
2 1/2SM
07:52
Overcast
Light Snow
18°F / -8°C 16°F / -9°C 93% 30.01 in
(1016 mb)
Calm 0.00 in
(0.00 mm)
3SM
07:39
Overcast
Light Snow
19°F / -7°C 16°F / -9°C 86% 30.01 in
(1016 mb)
Calm 0.00 in
(0.00 mm)
2 1/2SM
07:11
Overcast
Light Snow
18°F / -8°C 16°F / -9°C 93% 30.01 in
(1016 mb)
Calm 0.00 in
(0.00 mm)
1 3/4SM
06:52
Overcast
Light Snow
18°F / -8°C 16°F / -9°C 93% 29.98 in
(1015 mb)
Calm 0.01 in
(0.25 mm)
4SM
06:48
Overcast
Light Snow
19°F / -7°C 16°F / -9°C 86% 29.98 in
(1015 mb)
Calm 0.01 in
(0.25 mm)
4SM
06:38
Overcast
Light Snow
19°F / -7°C 16°F / -9°C 86% 29.98 in
(1015 mb)
Calm 0.01 in
(0.25 mm)
2 1/2SM
06:25
Overcast
Light Snow
19°F / -7°C 16°F / -9°C 86% 29.98 in
(1015 mb)
Calm 0.01 in
(0.25 mm)
2SM
06:17
Overcast
Light Snow
19°F / -7°C 16°F / -9°C 86% 29.98 in
(1015 mb)
Calm 0.01 in
(0.25 mm)
2 1/2SM
06:01
Overcast
Light Snow
19°F / -7°C 16°F / -9°C 86% 29.98 in
(1015 mb)
Calm 0.00 in
(0.00 mm)
2 1/2SM
05:52
Overcast
Light Snow
19°F / -7°C 16°F / -9°C 86% 29.98 in
(1015 mb)
Calm 0.01 in
(0.25 mm)
1 1/2SM
05:18
Overcast
Light Snow
18°F / -8°C 14°F / -10°C 86% 29.98 in
(1015 mb)
Calm 0.00 in
(0.00 mm)
1 1/4SM
05:14
Overcast
Light Snow
18°F / -8°C 16°F / -9°C 93% 29.98 in
(1015 mb)
Calm 0.00 in
(0.00 mm)
1 3/4SM
04:52
Overcast
Light Snow
18°F / -8°C 14°F / -10°C 86% 29.98 in
(1015 mb)
Calm 0.00 in
(0.00 mm)
3SM
04:29
Overcast
Light Snow
18°F / -8°C 14°F / -10°C 86% 29.98 in
(1015 mb)
Calm 0.00 in
(0.00 mm)
6SM
03:52
Overcast
14°F / -10°C 10°F / -12°C 85% 29.98 in
(1015 mb)
Calm - 10SM
02:52
Mostly Cloudy
16°F / -9°C 12°F / -11°C 86% 29.98 in
(1015 mb)
Calm - 10SM
01:52
Mostly Cloudy
16°F / -9°C 12°F / -11°C 86% 29.98 in
(1015 mb)
Calm - 10SM
00:52
Overcast
18°F / -8°C 14°F / -10°C 86% 29.98 in
(1015 mb)
Calm - 10SM
00:02
Mostly Cloudy
19°F / -7°C 16°F / -9°C 86% 29.98 in
(1015 mb)
Calm - 10SM
Time Weather Temperature Dewpoint Humidity Pressure Winds Precip Visibility


Weather for websites

WeatherForYou.com, LLC is not responsible for any damages or problems caused by this service. Current weather conditions are obtained from the closest station including government and personal stations which may have varying degrees of accuracy. Weather forecasts are derived from the NOAA NDFD. Like all things, this site belongs to Jesus Christ... He just trusts me to maintain it. If you have any questions or comments email webmaster@weatherforyou.com

Copyright © 2014, WeatherForYou.com LLC. All rights reserved.